TimePST,TemperatureF,Dew PointF,Humidity,Sea Level PressureIn,VisibilityMPH,Wind Direction,Wind SpeedMPH,Gust SpeedMPH,PrecipitationIn,Events,Conditions,WindDirDegrees,DateUTC
12:53 AM,63.0,45.0,52,30.03,10.0,Calm,Calm,-,N/A,,Clear,0,2012-11-05 08:53:00
1:53 AM,62.1,46.0,56,30.03,10.0,Calm,Calm,-,N/A,,Clear,0,2012-11-05 09:53:00
2:53 AM,62.1,45.0,53,30.01,10.0,Calm,Calm,-,N/A,,Clear,0,2012-11-05 10:53:00
3:53 AM,60.1,45.0,57,30.01,10.0,Calm,Calm,-,N/A,,Clear,0,2012-11-05 11:53:00
4:53 AM,60.1,45.0,57,30.02,10.0,Calm,Calm,-,N/A,,Clear,0,2012-11-05 12:53:00
5:53 AM,60.1,43.0,53,30.03,10.0,ENE,3.5,-,N/A,,Clear,70,2012-11-05 13:53:00
6:53 AM,64.0,43.0,46,30.04,10.0,Variable,4.6,-,N/A,,Clear,0,2012-11-05 14:53:00
7:53 AM,70.0,52.0,53,30.06,10.0,SW,3.5,-,N/A,,Partly Cloudy,230,2012-11-05 15:53:00
8:53 AM,79.0,48.0,34,30.06,10.0,SW,5.8,-,N/A,,Clear,220,2012-11-05 16:53:00
9:53 AM,84.9,39.9,20,30.06,10.0,SSW,4.6,-,N/A,,Clear,210,2012-11-05 17:53:00
10:53 AM,89.1,30.0,12,30.04,10.0,SW,6.9,-,N/A,,Clear,220,2012-11-05 18:53:00
11:53 AM,91.4,33.8,13,30.01,10.0,Variable,6.9,-,N/A,,Partly Cloudy,0,2012-11-05 19:53:00
12:53 PM,93.0,30.9,11,29.99,10.0,SW,5.8,-,N/A,,Clear,230,2012-11-05 20:53:00
1:53 PM,91.4,33.8,13,29.97,10.0,SW,8.1,-,N/A,,Partly Cloudy,220,2012-11-05 21:53:00
2:53 PM,89.6,33.8,14,29.97,10.0,West,4.6,-,N/A,,Partly Cloudy,270,2012-11-05 22:53:00
3:53 PM,84.2,37.4,19,29.98,10.0,SW,5.8,-,N/A,,Partly Cloudy,230,2012-11-05 23:53:00
4:53 PM,80.1,42.1,26,29.98,10.0,SW,4.6,-,N/A,,Clear,220,2012-11-06 00:53:00
5:53 PM,77.0,43.0,30,29.99,10.0,Calm,Calm,-,N/A,,Clear,0,2012-11-06 01:53:00
6:53 PM,73.0,46.9,39,30.00,10.0,Calm,Calm,-,N/A,,Clear,0,2012-11-06 02:53:00
7:53 PM,72.0,46.9,41,30.01,10.0,Calm,Calm,-,N/A,,Clear,0,2012-11-06 03:53:00
8:53 PM,69.1,46.9,45,30.02,10.0,Calm,Calm,-,N/A,,Clear,0,2012-11-06 04:53:00
9:53 PM,68.0,46.9,47,30.03,10.0,Calm,Calm,-,N/A,,Clear,0,2012-11-06 05:53:00
10:53 PM,66.0,46.0,48,30.03,10.0,Calm,Calm,-,N/A,,Clear,0,2012-11-06 06:53:00
11:53 PM,64.9,44.1,47,30.03,10.0,Calm,Calm,-,N/A,,Clear,0,2012-11-06 07:53:00